Zurück zum Katalog

SL-23 DEB

LostHEO
NORAD 35577·DEBRIS·🇷🇺 Russia

Gestartet Feb 26, 2009 von Baikonur Cosmodrome

Loading…

Nächste Überflüge (nächste 24 Stunden)

TLE

VeraltetSource: Space-Track

Epoche: Jun 4, 2024, 09:21 UTC

1 35577U 09009C   24156.38990581 -.00000056  00000-0  00000+0 0  9997
2 35577  35.1972 100.4794 6848400 239.7632 343.2146  2.20109299121453

Verfolge SL-23 DEB in Echtzeit mit AllMySat

Download on the App Store